[[{"header":{"parameterUnit":"m.s-1","parameterCategory":1,"la1":30.2991,"la2":30.254,"lo1":-89.0895,"lo2":-89.0444,"dy":0.0017,"dx":0.0017,"nx":28,"ny":28,"refTime":"2025-06-18T09:00:00:Z","depth":0,"parameterNumber":2,"parameterNumberName":"U-component_of_WINDS"},"data":[0,0,0,0,0,0,0,0,0,0,0,0,0,0,0,0,0,0,0,0,0,0,0,0,0,0,0,0,0,0,0,0,0,0,0,0,0,0,0,0,0,0,0,0,0,0,0,0,0,0,0,0,0,0,0,0,0,0,0.3419,0.3418,0,0.3333,0.3332,0.3331,0.3269,0.3269,0.3268,0.3268,0.3179,0.3177,0.3175,0,0,0,0,0,0,0,0,0,0,0,0,0,0.3528,0.3526,0.3419,0.3418,0.3417,0.3333,0.3332,0.3331,0.3269,0.3269,0.3268,0.3267,0.318,0.3177,0.3175,0,0,0,0,0,0,0,0,0,0,0,0,0,0.3465,0.3526,0.3419,0.3376,0.3371,0.3333,0.3332,0.333,0.3269,0.3269,0.3268,0.3267,0.318,0.3178,0.3175,0.3173,0,0,0.3166,0.3165,0,0,0,0,0,0,0,0,0.3469,0.3461,0.3384,0.3379,0.3374,0.3311,0.3338,0.3277,0.327,0.3308,0.3268,0.3267,0.3224,0.3217,0.3203,0.3168,0.3165,0.3166,0.3164,0.3163,0.3162,0,0,0,0,0,0,0,0.3473,0.3464,0.3385,0.3383,0.3376,0.336,0.3351,0.3326,0.3271,0.3305,0.33,0.3291,0.3221,0.3206,0.32,0.3163,0.3166,0.3164,0.3162,0.3161,0.3119,0.3119,0,0,0,0,0,0,0.3484,0.3468,0.3388,0.3382,0.342,0.3359,0.3348,0.3332,0.3271,0.3261,0.3291,0.3288,0.3211,0.3203,0.3197,0.3187,0.3163,0.316,0.3159,0.3118,0.3119,0.3119,0,0,0,0,0,0,0.3487,0.3478,0.3391,0.3424,0.3412,0.3358,0.334,0.3331,0.3315,0.3261,0.3251,0.3286,0.321,0.3201,0.3178,0.3183,0.3159,0.3157,0.3117,0.3118,0.3119,0.317,0,0,0,0,0,0,0.349,0.3479,0.3479,0.3425,0.341,0.3375,0.3341,0.3329,0.3311,0.3306,0.3253,0.3244,0.3209,0.3183,0.3175,0.3179,0.3154,0.3117,0.3118,0.3119,0.3168,0.3173,0.3177,0,0,0,0,0,0.3494,0.3497,0.3479,0.3469,0.3408,0.3376,0.3367,0.3326,0.3311,0.3309,0.3274,0.3246,0.3184,0.3181,0.3172,0.3175,0.3116,0.3118,0.3119,0.3166,0.3172,0.3177,0,0,0,0,0,0,0.3554,0.3489,0.3468,0.3454,0.342,0.3365,0.3362,0.3335,0.3305,0.3301,0.3252,0.324,0.3222,0.3197,0.3194,0.3168,0.3146,0.3146,0.3185,0.3191,0.3195,0.3201,0.3152,0,0,0,0,0,0.3565,0.3544,0.3489,0.3481,0.3465,0.3417,0.3401,0.3372,0.3335,0.3321,0.3284,0.325,0.3222,0.3205,0.3177,0.3164,0.315,0.3161,0.3166,0.317,0.317,0.3158,0.3162,0.3124,0.3124,0.3124,0,0,0.3588,0.355,0.354,0.3492,0.3463,0.3441,0.3405,0.3385,0.3367,0.3318,0.3294,0.3265,0.3223,0.3204,0.3195,0.3182,0.3177,0.3172,0.3175,0.3173,0.316,0.3163,0.3167,0.3125,0.3125,0.3124,0,0,0.3619,0.3589,0.3578,0.3549,0.3505,0.3472,0.3469,0.3417,0.3396,0.3371,0.3333,0.3311,0.3266,0.3236,0.3215,0.3232,0.3204,0.3224,0.3248,0.3237,0.324,0.3242,0.3246,0.3248,0.3224,0.3225,0.3225,0,0.3653,0.3619,0.3576,0.3556,0.3535,0.3488,0.3475,0.345,0.3399,0.3385,0.3372,0.3311,0.328,0.3252,0.3256,0.3242,0.3235,0.323,0.3243,0.3245,0.3246,0.3249,0.3251,0.3227,0.3227,0.3227,0.3226,0,0.3662,0.3639,0.3635,0.3586,0.3565,0.3549,0.3502,0.3485,0.3457,0.3425,0.3399,0.3359,0.332,0.3312,0.3286,0.328,0.3273,0.3253,0.323,0.3253,0.3255,0.3256,0.3231,0.323,0.3229,0.3229,0,0,0.3729,0.3654,0.3653,0.3629,0.3576,0.3557,0.3538,0.35,0.3485,0.3451,0.3433,0.3394,0.3373,0.335,0.3319,0.331,0.3322,0.3289,0.3287,0.3295,0.331,0.3325,0.3327,0.3303,0.3303,0.3303,0.3313,0,0.3749,0.3713,0.3672,0.3649,0.3626,0.358,0.3563,0.3528,0.3497,0.3472,0.3438,0.341,0.3386,0.3371,0.336,0.3323,0.3324,0.3322,0.3284,0.3283,0.3294,0.3328,0.3344,0.3355,0.3313,0.3313,0.3314,0,0.3769,0.3736,0.3711,0.3658,0.3646,0.3632,0.3592,0.3569,0.3528,0.3505,0.3478,0.3445,0.342,0.3401,0.3366,0.3365,0.3347,0.3326,0.3325,0.3319,0.3299,0.3321,0.3358,0.3359,0.3315,0.3314,0.3314,0,0.3817,0.3767,0.3744,0.3726,0.3663,0.3654,0.3627,0.3584,0.3563,0.3529,0.3514,0.3477,0.3456,0.3428,0.3385,0.3375,0.3353,0.3331,0.3332,0.3333,0.3329,0.333,0.3362,0.332,0.332,0.332,0.332,0,0.3844,0.383,0.3765,0.3751,0.3733,0.3685,0.3668,0.3638,0.36,0.3578,0.3536,0.3517,0.3462,0.3435,0.3401,0.3375,0.3367,0.3347,0.3338,0.335,0.3352,0.3337,0.3334,0.3321,0.3321,0.3321,0.332,0,0.3895,0.3851,0.3823,0.3765,0.375,0.3739,0.3689,0.3673,0.3639,0.3612,0.3603,0.3549,0.3515,0.347,0.3422,0.3399,0.3377,0.3364,0.3391,0.3385,0.3389,0.3388,0.3411,0.341,0.3371,0.3371,0.3372,0,0.3914,0.3902,0.3842,0.3825,0.3799,0.3772,0.3749,0.3701,0.3679,0.3629,0.3619,0.3581,0.3549,0.3496,0.3453,0.3415,0.3399,0.341,0.3394,0.3405,0.3397,0.3398,0.3395,0.3414,0.3414,0.3415,0.3415,0,0.3952,0.393,0.39,0.3861,0.3836,0.3803,0.3769,0.3756,0.37,0.3678,0.3642,0.3617,0.3567,0.353,0.3486,0.3457,0.3426,0.3421,0.3419,0.343,0.3446,0.3435,0.34,0.342,0.342,0.342,0.3419,0.3419,0.3986,0.3972,0.3927,0.3894,0.3863,0.3831,0.3812,0.3775,0.3745,0.37,0.3673,0.3638,0.3594,0.3532,0.3504,0.3475,0.3463,0.3461,0.346,0.346,0.3462,0.3451,0.3467,0.3467,0.3467,0.3466,0.3466,0,0.402,0.3988,0.3959,0.3911,0.3884,0.3858,0.3817,0.3796,0.3766,0.3728,0.3696,0.3654,0.3617,0.3569,0.3528,0.3514,0.3499,0.3505,0.3505,0.3498,0.3477,0.3481,0.3518,0.3518,0.3518,0.3518,0.3518,0.3518,0.4034,0.4008,0.3981,0.3938,0.3906,0.3872,0.3851,0.382,0.3789,0.3744,0.3712,0.3682,0.3639,0.3594,0.3558,0.3545,0.3531,0.3541,0.3524,0.3504,0.35,0.3495,0.35,0.3539,0.3539,0.3547,0.3547,0.3547]},{"header":{"parameterUnit":"m.s-1","parameterCategory":1,"la1":30.2991,"la2":30.254,"lo1":-89.0895,"lo2":-89.0444,"dy":0.0017,"dx":0.0017,"nx":28,"ny":28,"refTime":"2025-06-18T09:00:00:Z","depth":0,"parameterNumber":3,"parameterNumberName":"V-component_of_WINDS"},"data":[0,0,0,0,0,0,0,0,0,0,0,0,0,0,0,0,0,0,0,0,0,0,0,0,0,0,0,0,0,0,0,0,0,0,0,0,0,0,0,0,0,0,0,0,0,0,0,0,0,0,0,0,0,0,0,0,0,0,4.2873,4.2874,0,4.2959,4.296,4.2961,4.2917,4.2915,4.2912,4.291,4.2992,4.2996,4.3001,0,0,0,0,0,0,0,0,0,0,0,0,0,4.2661,4.2665,4.2873,4.2874,4.2875,4.2959,4.296,4.2962,4.2917,4.2914,4.2912,4.2909,4.2991,4.2996,4.3001,0,0,0,0,0,0,0,0,0,0,0,0,0,4.275,4.2666,4.2872,4.2863,4.2863,4.2959,4.2961,4.2962,4.2918,4.2914,4.2911,4.2908,4.2989,4.2995,4.3002,4.311,0,0,4.3021,4.3024,0,0,0,0,0,0,0,0,4.2745,4.2758,4.2863,4.2864,4.2864,4.2924,4.2916,4.3011,4.2919,4.2897,4.291,4.2906,4.2972,4.2979,4.3003,4.3114,4.3117,4.3022,4.3026,4.3029,4.3031,0,0,0,0,0,0,0,4.2739,4.2754,4.2907,4.2865,4.2865,4.2852,4.2861,4.2934,4.2952,4.2898,4.2895,4.2907,4.2971,4.2997,4.3005,4.3119,4.3022,4.3028,4.3032,4.3034,4.3319,4.3322,0,0,0,0,0,0,4.2734,4.2749,4.2904,4.2909,4.2795,4.2858,4.2868,4.2908,4.2951,4.2955,4.291,4.2904,4.2988,4.2997,4.3007,4.3134,4.3029,4.3035,4.3038,4.3315,4.332,4.3324,0,0,0,0,0,0,4.273,4.2749,4.2901,4.2829,4.2847,4.2866,4.2911,4.2912,4.2937,4.296,4.2962,4.2933,4.2985,4.2998,4.3084,4.3137,4.3038,4.3044,4.3311,4.3317,4.3322,4.3391,0,0,0,0,0,0,4.2724,4.2747,4.2791,4.283,4.2851,4.2979,4.2914,4.2916,4.2949,4.2943,4.2982,4.2985,4.2984,4.3075,4.3091,4.3144,4.3049,4.3306,4.3313,4.332,4.3384,4.3398,4.341,0,0,0,0,0,4.2717,4.2806,4.2793,4.2812,4.2906,4.2982,4.2994,4.2992,4.2954,4.2996,4.301,4.2984,4.3129,4.3084,4.3102,4.3157,4.3303,4.3311,4.3319,4.3378,4.3395,4.341,0,0,0,0,0,0,4.277,4.2811,4.2797,4.2902,4.2939,4.2974,4.3027,4.3011,4.3057,4.3049,4.3043,4.3052,4.3141,4.3158,4.3108,4.3263,4.3209,4.3222,4.3248,4.3265,4.3278,4.327,4.3054,0,0,0,0,0,4.2795,4.2856,4.2887,4.2976,4.2996,4.3009,4.3042,4.3037,4.3074,4.3089,4.3109,4.3144,4.3197,4.3232,4.3283,4.3387,4.3393,4.3433,4.3446,4.3457,4.3467,4.352,4.3537,4.3351,4.3351,4.3351,0,0,4.2845,4.2875,4.2913,4.2988,4.3016,4.3076,4.3022,4.3089,4.3132,4.3098,4.3181,4.3197,4.3235,4.333,4.3373,4.3347,4.352,4.3468,4.3476,4.348,4.353,4.3548,4.3563,4.3356,4.3355,4.3355,0,0,4.2966,4.2997,4.3073,4.3103,4.3147,4.3154,4.3173,4.3211,4.3221,4.3304,4.3279,4.333,4.3422,4.345,4.3476,4.3607,4.3583,4.3623,4.3691,4.3742,4.3757,4.377,4.3814,4.383,4.3633,4.3634,4.3634,0,4.3022,4.3115,4.3114,4.3183,4.3215,4.3189,4.3264,4.3292,4.3349,4.3371,4.3342,4.3456,4.348,4.3579,4.3611,4.3634,4.3652,4.3618,4.3756,4.3768,4.378,4.3822,4.3839,4.3638,4.3637,4.3637,4.3637,0,4.318,4.3244,4.33,4.3358,4.3396,4.3468,4.3475,4.3514,4.3506,4.3516,4.3599,4.3628,4.3682,4.3706,4.3698,4.3803,4.3786,4.3757,4.3702,4.3803,4.3841,4.3857,4.3644,4.3643,4.3641,4.364,0,0,4.3337,4.3393,4.3413,4.3438,4.3484,4.3532,4.3601,4.3656,4.3688,4.3728,4.3783,4.3862,4.3835,4.3864,4.3859,4.3906,4.4003,4.387,4.3871,4.3891,4.4118,4.4137,4.4156,4.3989,4.3993,4.3995,4.4113,0,4.3459,4.3582,4.3583,4.3695,4.3752,4.3728,4.3788,4.3821,4.3832,4.388,4.3891,4.3946,4.3908,4.3925,4.397,4.3982,4.4048,4.3974,4.4037,4.404,4.4026,4.4177,4.4198,4.4309,4.4129,4.4131,4.4133,0,4.3618,4.3665,4.3783,4.3819,4.3843,4.3897,4.3946,4.3994,4.403,4.4034,4.4067,4.4055,4.4122,4.4068,4.4158,4.4108,4.4134,4.4144,4.4148,4.4151,4.4091,4.4181,4.4344,4.4359,4.4158,4.4156,4.4154,0,4.3717,4.3809,4.3891,4.3913,4.3958,4.3996,4.4016,4.4049,4.4081,4.4124,4.4144,4.4193,4.4219,4.4256,4.4256,4.4218,4.4347,4.4294,4.4349,4.4349,4.4375,4.4373,4.4542,4.4397,4.4397,4.4397,4.4396,0,4.3852,4.3924,4.3936,4.3986,4.4065,4.4065,4.4142,4.4159,4.4188,4.4238,4.4221,4.4268,4.4267,4.4314,4.4315,4.4388,4.44,4.4403,4.4402,4.4404,4.4403,4.4418,4.441,4.4401,4.44,4.4399,4.4399,0,4.3974,4.3986,4.4073,4.4108,4.4119,4.4175,4.4204,4.425,4.426,4.4324,4.4339,4.4353,4.4408,4.4412,4.4476,4.4476,4.4563,4.4555,4.4551,4.4549,4.4603,4.4597,4.4785,4.4808,4.4652,4.4653,4.4655,0,4.4058,4.4113,4.4155,4.4189,4.4211,4.4266,4.4299,4.43,4.4334,4.4379,4.4419,4.4472,4.4515,4.4603,4.4617,4.4664,4.4655,4.4718,4.4662,4.4661,4.4652,4.4648,4.4652,4.4728,4.4729,4.4731,4.4732,0,4.4205,4.4208,4.4257,4.4309,4.4349,4.4389,4.4426,4.4454,4.4459,4.4498,4.4555,4.4588,4.4653,4.4705,4.4751,4.4768,4.475,4.475,4.4765,4.4765,4.476,4.476,4.4578,4.4745,4.4743,4.4743,4.4742,4.4741,4.4309,4.4356,4.4392,4.4447,4.4476,4.4511,4.4555,4.4571,4.4619,4.4673,4.467,4.4731,4.4763,4.4824,4.4845,4.4891,4.487,4.4892,4.4897,4.4902,4.4906,4.4755,4.49,4.49,4.4899,4.4899,4.4899,0,4.4452,4.4474,4.4525,4.4578,4.4621,4.4603,4.4643,4.4678,4.4734,4.4766,4.4809,4.4872,4.4922,4.4941,4.4989,4.5022,4.5015,4.5035,4.503,4.5034,4.4924,4.4905,4.504,4.504,4.504,4.504,4.504,4.5039,4.4531,4.4609,4.4616,4.4706,4.4727,4.4789,4.4813,4.4844,4.487,4.4942,4.4984,4.4997,4.5023,4.5073,4.5117,4.5121,4.5137,4.516,4.516,4.5057,4.5042,4.5029,4.5011,4.5165,4.5165,4.5266,4.5267,4.5268]}]]